DateTimeUTC,F1_A11,F1_S11,BsB_S11,BsG_S11,BsR_S11,BbsB_S11,BbsG_S11,BbsR_S11,BaB_A11,BaG_A11,BaR_A11,Tu_S11,T_S11,Uu_S11,U_S11,P_S11,T1_A11
2021-07-25T16:00:00Z,00000200,20000000,,,,,,,0000.07,0000.08,0000.29,20.3,26.6,08.6,05.9,0671.4,31.2
2021-07-25T16:01:00Z,00000200,20000000,,,,,,,-000.04,-000.08,0000.30,20.3,26.6,08.6,05.9,0671.4,31.2
2021-07-25T16:02:00Z,00000200,20000000,,,,,,,-000.02,-000.15,-000.48,20.3,26.6,08.6,05.9,0671.4,31.2
2021-07-25T16:03:00Z,00000200,60000000,,,,,,,-000.12,-000.14,0000.02,20.3,26.7,08.7,05.9,0671.4,31.2
2021-07-25T16:04:00Z,00000200,40000000,0000.16,0000.49,-000.15,-000.14,0000.20,0000.08,0000.23,0000.26,0000.27,20.4,26.5,08.6,06.0,0672.4,31.2
2021-07-25T16:05:00Z,00000200,00000000,0000.11,0000.18,0000.33,0000.07,-000.16,0000.03,-000.02,0000.11,0000.05,20.5,26.5,08.7,06.1,0672.5,31.2
2021-07-25T16:06:00Z,00000200,00000000,0000.55,0000.37,0000.24,0000.03,-000.07,0000.14,0000.24,-000.36,-000.15,20.5,26.5,08.5,05.9,0672.5,31.2
2021-07-25T16:07:00Z,00000200,00000000,0000.51,0000.28,0000.10,-000.00,0000.33,0000.01,0000.46,0001.03,0000.58,20.5,26.5,08.7,06.0,0672.5,31.2
2021-07-25T16:08:00Z,00000200,00000000,0001.01,0000.39,0000.19,0000.11,-000.01,0000.14,-000.38,-000.45,-000.49,20.5,26.5,09.0,06.2,0672.5,31.2
2021-07-25T16:09:00Z,00000200,00000000,0001.48,0000.35,0000.42,0000.62,0000.26,0000.00,0000.28,0000.35,0000.13,20.5,26.5,08.9,06.2,0672.5,31.2
2021-07-25T16:10:00Z,00000200,00000000,0000.09,0000.28,-000.08,0000.02,0000.27,-000.71,-000.34,-000.15,0000.30,20.5,26.5,08.9,06.2,0672.5,31.2
2021-07-25T16:11:00Z,00000200,00000000,0001.00,0000.22,0000.47,-000.15,0000.08,0000.34,0000.15,-000.11,0000.04,20.5,26.5,08.8,06.1,0672.5,31.2
2021-07-25T16:12:00Z,00000200,00000000,0001.12,0000.55,0000.04,-000.15,0000.11,0000.12,0000.26,0000.35,0000.20,20.5,26.5,08.6,06.0,0672.5,31.2
2021-07-25T16:13:00Z,00000200,00000000,0000.82,0000.20,0000.28,0000.56,-000.05,-000.18,0000.28,0000.38,-000.01,20.5,26.5,08.9,06.2,0672.5,31.2
2021-07-25T16:14:00Z,00000200,00000000,0000.95,0000.33,0000.19,0000.56,0000.08,-000.04,0000.20,0000.22,0000.43,20.5,26.5,09.1,06.3,0672.5,31.2
2021-07-25T16:15:00Z,00000200,00000000,0001.09,-000.22,0000.18,-000.20,-000.02,-000.30,-000.21,-000.71,-000.32,20.5,26.5,09.0,06.3,0672.5,31.2
2021-07-25T16:16:00Z,00000200,00000000,0000.53,0000.33,0000.17,0000.38,-000.28,0000.06,0000.08,0000.38,-000.31,20.5,26.5,08.9,06.3,0672.5,31.2
2021-07-25T16:17:00Z,00000200,00000000,0001.21,0000.37,0000.24,0000.50,0000.05,-000.18,-000.21,-000.23,0000.30,20.5,26.5,08.8,06.2,0672.5,31.2
2021-07-25T16:18:00Z,00000200,00000000,0000.84,0000.04,-000.16,-000.18,-000.10,0000.03,0000.40,0000.09,-000.03,20.5,26.5,08.9,06.2,0672.5,31.2
2021-07-25T16:19:00Z,00000200,00000000,0000.98,0000.68,0000.37,0000.27,0000.22,0000.21,-000.27,0000.05,0000.16,20.5,26.5,08.9,06.2,0672.5,31.2
2021-07-25T16:20:00Z,00000200,00000000,0000.94,0000.28,0000.23,0000.06,0000.10,0000.06,0000.36,0000.57,-000.08,20.5,26.5,08.8,06.1,0672.5,31.2
2021-07-25T16:21:00Z,00000200,00000000,0000.96,0000.20,0000.17,0000.34,-000.02,-000.22,-000.02,-000.23,0000.18,20.5,26.5,08.8,06.1,0672.5,31.2
2021-07-25T16:22:00Z,00000200,00000000,0000.74,-000.10,0000.44,-000.11,0000.21,0000.31,-000.03,0000.03,0000.09,20.5,26.5,08.8,06.1,0672.5,31.2
2021-07-25T16:23:00Z,00000200,00000000,0000.54,0000.24,0000.31,0000.34,0000.11,0000.34,0000.14,0000.08,0000.09,20.5,26.5,08.8,06.2,0672.5,31.2
2021-07-25T16:24:00Z,00000200,00000000,0000.43,0000.17,0000.24,0000.04,0000.07,0000.09,-000.01,0000.16,-000.11,20.5,26.5,08.9,06.2,0672.5,31.2
2021-07-25T16:25:00Z,00000200,00000000,0000.46,0000.21,-000.01,0000.12,0000.08,-000.33,0000.10,0000.03,0000.10,20.5,26.5,08.8,06.2,0672.5,31.2
2021-07-25T16:26:00Z,00000200,00000000,0000.86,0000.21,0000.11,0000.83,-000.00,-000.01,0000.03,0000.16,0000.26,20.6,26.5,08.9,06.2,0672.5,31.2
2021-07-25T16:27:00Z,00000200,00000000,0000.68,0000.32,-000.07,-000.08,0000.33,0000.04,0000.06,-000.35,-000.34,20.6,26.5,08.8,06.2,0672.5,31.2
2021-07-25T16:28:00Z,00000200,00000000,0000.63,0000.37,-000.07,-000.28,-000.06,-000.11,0000.07,0000.16,-000.01,20.6,26.5,08.8,06.2,0672.5,31.2
2021-07-25T16:29:00Z,00000200,00000000,0001.19,0000.41,-000.17,-000.28,0000.19,0000.13,-000.18,-000.40,0000.05,20.6,26.5,08.6,06.0,0672.5,31.2
2021-07-25T16:30:00Z,00000200,00000000,0000.88,0000.25,-000.19,0000.75,-000.01,0000.01,0000.34,0000.87,0000.20,20.6,26.5,08.7,06.1,0672.5,31.2
2021-07-25T16:31:00Z,00000200,00000000,0000.60,0000.22,-000.02,0000.31,0000.00,-000.13,0000.62,0000.53,0000.66,20.6,26.5,08.9,06.2,0672.5,31.2
2021-07-25T16:32:00Z,00000200,00000000,0000.07,0000.44,0000.01,-000.66,0000.19,-000.04,0000.11,-000.29,-000.22,20.6,26.5,09.1,06.4,0672.6,31.2
2021-07-25T16:33:00Z,00000200,00000000,0000.60,0000.36,0000.35,0000.12,-000.15,-000.00,-000.24,-000.09,-000.14,20.6,26.5,09.0,06.3,0672.5,31.2
2021-07-25T16:34:00Z,00000200,00000000,0000.51,0000.05,0000.25,-000.06,0000.04,-000.09,0000.07,-000.09,0000.24,20.6,26.5,09.0,06.3,0672.5,31.2
2021-07-25T16:35:00Z,00000200,00000000,0001.54,0000.06,0000.49,0000.64,0000.05,-000.07,0000.02,0000.32,0000.36,20.6,26.5,09.0,06.3,0672.5,31.2
2021-07-25T16:36:00Z,00000200,00000000,0000.75,0000.22,0000.16,0000.25,0000.31,0000.43,0000.17,0000.15,-000.25,20.6,26.5,09.0,06.3,0672.5,31.2
2021-07-25T16:37:00Z,00000200,00000000,0000.29,0000.21,0000.19,-000.10,0000.02,-000.03,0000.21,-000.06,0000.11,20.6,26.5,09.0,06.3,0672.5,31.2
2021-07-25T16:38:00Z,00000200,00000000,0000.83,0000.16,-000.13,0000.11,0000.19,-000.15,-000.28,-000.07,0000.03,20.6,26.5,09.1,06.3,0672.5,31.2
2021-07-25T16:39:00Z,00000200,00000000,0000.09,0000.09,0000.13,0000.49,-000.00,0000.27,0000.26,0000.07,0000.20,20.6,26.5,08.9,06.2,0672.5,31.2
2021-07-25T16:40:00Z,00000200,00000000,0000.55,0000.25,-000.08,0000.07,-000.02,-000.17,0000.36,0000.44,0000.19,20.6,26.5,09.0,06.3,0672.5,31.2
2021-07-25T16:41:00Z,00000200,00000000,0001.27,0000.42,0000.07,0000.18,-000.05,0000.04,-000.38,-000.00,-000.23,20.6,26.5,09.2,06.4,0672.5,31.2
2021-07-25T16:42:00Z,00000200,00000000,0001.07,0000.28,0000.11,0000.24,0000.14,-000.40,-000.10,-000.23,-000.01,20.6,26.5,08.9,06.2,0672.5,31.2
2021-07-25T16:43:00Z,00000200,00000000,0000.89,0000.06,0000.03,0000.15,0000.04,-000.24,0000.45,0000.04,-000.10,20.6,26.5,08.8,06.2,0672.5,31.2
2021-07-25T16:44:00Z,00000200,00000000,0000.70,-000.06,0000.07,0000.80,-000.08,-000.02,-000.23,-000.06,0000.01,20.6,26.5,08.9,06.2,0672.6,31.2
2021-07-25T16:45:00Z,00000200,00000000,0000.50,0000.36,0000.16,0000.93,0000.02,0000.44,0000.56,0000.27,0000.45,20.6,26.5,09.0,06.3,0672.6,31.2
2021-07-25T16:46:00Z,00000200,00000000,0000.97,0000.38,0000.06,-000.00,0000.22,-000.34,-000.27,0000.06,0000.01,20.6,26.5,09.1,06.3,0672.6,31.2
2021-07-25T16:47:00Z,00000200,00000000,0000.85,0000.21,0000.02,0000.09,-000.00,0000.06,-000.01,0000.01,-000.22,20.6,26.5,08.9,06.2,0672.5,31.2
2021-07-25T16:48:00Z,00000200,00000000,0000.08,-000.14,0000.37,0000.31,-000.19,0000.24,0000.52,0000.48,0000.30,20.6,26.5,09.0,06.3,0672.6,31.2
2021-07-25T16:49:00Z,00000200,00000000,0000.97,0000.42,0000.22,-000.21,-000.15,0000.07,-000.09,0000.13,0000.07,20.6,26.6,09.2,06.4,0672.6,31.2
2021-07-25T16:50:00Z,00000200,00000000,0001.27,0000.45,0000.57,0000.07,0000.14,0000.30,0000.36,0000.21,0000.20,20.6,26.5,09.1,06.4,0672.6,31.2
2021-07-25T16:51:00Z,00000200,00000000,0000.14,0000.33,0000.37,-000.19,-000.10,0000.10,-000.33,-000.35,-000.19,20.6,26.5,09.2,06.4,0672.6,31.2
2021-07-25T16:52:00Z,00000200,00000000,0000.74,0000.14,-000.10,0000.36,0000.13,-000.12,0000.21,-000.08,0000.16,20.6,26.6,09.0,06.3,0672.6,31.2
2021-07-25T16:53:00Z,00000200,00000000,0000.70,0000.35,0000.21,0000.10,0000.06,-000.06,-000.28,0000.04,-000.24,20.6,26.6,08.9,06.2,0672.6,31.2
2021-07-25T16:54:00Z,00000200,00000000,0000.45,0000.05,0000.48,-000.23,0000.07,-000.17,0000.56,0000.40,0000.35,20.6,26.6,09.0,06.3,0672.6,31.2
2021-07-25T16:55:00Z,00000200,00000000,0000.31,0000.36,0000.37,-000.15,-000.03,-000.00,-000.03,-000.09,0000.08,20.6,26.6,09.0,06.3,0672.6,31.2
2021-07-25T16:56:00Z,00000200,00000000,0000.84,0000.37,0000.19,-000.24,0000.14,-000.23,-000.07,0000.16,0000.02,20.6,26.6,09.0,06.3,0672.6,31.2
2021-07-25T16:57:00Z,00000200,40000000,,,,,,,0000.41,0000.21,0000.25,20.7,26.6,09.6,06.7,0672.6,31.2
2021-07-25T16:58:00Z,00000200,60000000,,,,,,,-000.23,-000.71,-000.35,20.5,26.7,09.0,06.1,0671.6,31.2
2021-07-25T16:59:00Z,00000200,20000000,,,,,,,-000.51,-000.07,-000.25,20.5,26.8,08.9,06.1,0671.6,31.2
